1359763232600,0.795561
1359763292600,0.812232
1359763352600,0.798580
1359763412600,0.808126
1359763472600,0.803240
1359763532600,0.803508
1359763592600,0.794698
1359763652600,0.800314
1359763712600,0.793620
1359763772600,0.800094
1359763832600,0.793523
1359763892600,0.799539
1359763952600,0.799364
1359764012600,0.801527
1359764072600,0.798709
1359764132600,0.794770
1359764192600,0.798464
1359764252600,0.797957
1359764312600,0.788516
1359764372600,0.796628
1359764432600,0.799959
1359764492600,0.799232
1359764552600,0.795712
1359764612600,0.804955
1359764672600,0.797240
1359764732600,0.792360
1359764792600,0.800846
1359764852600,0.792907
1359764912600,0.803452
1359764972600,0.791786
1359765032600,0.791859
1359765092600,0.805124
1359765152600,0.800469
1359765212600,0.798496
1359765272600,0.793515
1359765332600,0.800547
1359765392600,0.797880
1359765452600,0.802164
1359765512600,0.794677
1359765572600,0.794540
1359765632600,0.806571
1359765692600,0.801416
1359765752600,0.803982
1359765812600,0.796217
1359765872600,0.800370
1359765932600,0.794689
1359765992600,0.794753
1359766052600,0.796052
1359766112600,0.792557
1359766172600,0.794823
1359766232600,0.791707
1359766292600,0.800464
1359766352600,0.802734
1359766412600,0.794907
1359766472600,0.795954
1359766532600,0.802149
1359766592600,0.802068
1359766652600,0.797085
1359766712600,0.796344
1359766772600,0.797118
1359766832610,0.799750
1359766892610,0.798487
1359766952610,0.788865
1359767012610,0.795368
1359767072610,0.792436
1359767132610,0.801609
1359767192610,0.796218
1359767252610,0.797285
1359767312610,0.792559
1359767372610,0.797132
1359767432610,0.802422
1359767492610,0.796430
1359767552610,0.797208
1359767612610,0.797931
1359767672610,0.798786
1359767732610,0.796758
1359767792610,0.794906
1359767852610,0.801932
1359767912610,0.797697
1359767972611,0.798737
1359768032611,0.797594
1359768092611,0.799074
1359768152610,0.798924
1359768212610,0.797618
1359768272610,0.799547
1359768332610,0.793573
1359768392610,0.798136
1359768452610,0.801596
1359768512610,0.804913
1359768572610,0.801512
1359768632610,0.808376
1359768692610,0.796055
1359768752610,0.807516
1359768812610,0.803049
1359768872610,0.802179
1359768932610,0.798963
1359768992610,0.808672
1359769052610,0.807403
1359769112610,0.798886
1359769172610,0.794454
1359769232610,0.805978
1359769292611,0.800695
1359769352611,0.803010
1359769412611,0.802414
1359769472610,0.803704
1359769532610,0.801287
1359769592610,0.801541
1359769652610,0.797888
1359769712610,0.806496
1359769772610,0.801298
1359769832610,0.808436
1359769892610,0.796402
1359769952610,0.799184
1359770012610,0.791469
1359770072610,0.807491
1359770132610,0.794818
1359770192610,0.797256
1359770252610,0.803250
1359770312610,0.798995
1359770372610,0.793512
1359770432621,0.793992
1359770492621,0.798169
1359770552621,0.803203
1359770612621,0.803710
1359770672621,0.799813
1359770732621,0.799699
1359770792621,0.798164
1359770852621,0.801368
1359770912621,0.798175
1359770972621,0.799564
1359771032621,0.795962
1359771092621,0.797004
1359771152621,0.795296
1359771212621,0.796412
1359771272621,0.801872
1359771332621,0.800991
1359771392621,0.789834
1359771452621,0.796361
1359771512621,0.797493
1359771572621,0.796872
1359771632621,0.799285
1359771692621,0.797616
1359771752621,0.798570
1359771812621,0.802598
1359771872621,0.797292
1359771932621,0.801849
1359771992621,0.799505
1359772052621,0.801815
1359772112621,0.798627
1359772172621,0.798382
1359772232621,0.797643
1359772292621,0.795432
1359772352621,0.799217
1359772412621,0.794348
1359772472621,0.792211
1359772532621,0.796993
1359772592621,0.797952
1359772652621,0.805563
1359772712621,0.803077
1359772772621,0.794492
1359772832621,0.788713
1359772892621,0.809011
1359772952621,0.798932
1359773012621,0.795501
1359773072621,0.804679
1359773132621,0.801382
1359773192621,0.798630
1359773252621,0.794886
1359773312621,0.794369
1359773372621,0.792224
1359773432621,0.794194
1359773492621,0.799936
1359773552621,0.796246
1359773612621,0.793324
1359773672621,0.798090
1359773732621,0.792516
1359773792621,0.802244
1359773852621,0.796306
1359773912621,0.795423
1359773972621,0.801276
1359774032631,0.799964
1359774092631,0.801606
1359774152631,0.790826
1359774212631,0.797816
1359774272631,0.795085
1359774332631,0.793766
1359774392631,0.806337
1359774452631,0.802664
1359774512631,0.794934
1359774572631,0.798967
1359774632631,0.791106
1359774692631,0.798595
1359774752631,0.802358
1359774812631,0.792328
1359774872631,0.796273
1359774932631,0.803467
1359774992631,0.799646
1359775052631,0.798417
1359775112631,0.800689
1359775172631,0.796342
1359775232631,0.797500
1359775292631,0.798333
1359775352631,0.796012
1359775412631,0.792039
1359775472631,0.795192
1359775532631,0.798791
1359775592631,0.797077
1359775652631,0.797494
1359775712631,0.799328
1359775772631,0.795734
1359775832631,0.791351
1359775892631,0.795933
1359775952631,0.793896
1359776012631,0.789615
1359776072631,0.797935
1359776132631,0.798101
1359776192631,0.799901
1359776252631,0.793106
1359776312631,0.785994
1359776372631,0.800387
1359776432631,0.797307
1359776492631,0.798555
1359776552631,0.802069
1359776612631,0.795531
1359776672631,0.791446
1359776732631,0.793534
1359776792631,0.798432
1359776852631,0.796229
1359776912631,0.794308
1359776972631,0.796663
1359777032631,0.798505
1359777092631,0.803138
1359777152631,0.789004
1359777212631,0.794820
1359777272631,0.795644
1359777332631,0.792613
1359777392631,0.797875
1359777452631,0.794379
1359777512631,0.793683
1359777572631,0.795582
1359777632642,0.797189
1359777692642,0.795807
1359777752642,0.785608
1359777812642,0.793581
1359777872642,0.789722
1359777932642,0.794094
1359777992642,0.791051
1359778052642,0.792371
1359778112642,0.796450
1359778172642,0.790868
1359778232642,0.794701
1359778292642,0.794715
1359778352642,0.796274
1359778412642,0.794375
1359778472642,0.794251
1359778532642,0.792659
1359778592642,0.795045
1359778652642,0.801942
1359778712642,0.790687
1359778772642,0.797999
1359778832642,0.802415
1359778892642,0.796340
1359778952642,0.792890
1359779012642,0.794667
1359779072642,0.791128
1359779132642,0.793727
1359779192642,0.791012
1359779252642,0.790363
1359779312642,0.796117
1359779372642,0.789968
1359779432642,0.795876
1359779492642,0.793342
1359779552642,0.799787
1359779612642,0.800552
1359779672642,0.797899
1359779732642,0.793563
1359779792642,0.794689
1359779852642,0.797758
1359779912642,0.802998
1359779972642,0.795038
1359780032642,0.791897
1359780092642,0.795904
1359780152642,0.799843
1359780212642,0.799997
1359780272642,0.798923
1359780332642,0.786721
1359780392642,0.797405
1359780452642,0.797212
1359780512642,0.794135
1359780572642,0.799940
1359780632642,0.797228
1359780692642,0.797687
1359780752642,0.802634
1359780812642,0.802938
1359780872642,0.798019
1359780932642,0.797485
1359780992642,0.800450
1359781052642,0.799410
1359781112642,0.801909
1359781172642,0.803181
1359781232653,0.801665
1359781292653,0.802257
1359781352653,0.802840
1359781412653,0.810431
1359781472653,0.802760
1359781532653,0.812731
1359781592653,0.824925
1359781652653,0.816055
1359781712653,0.813864
1359781772653,0.819615
1359781832653,0.834798
1359781892653,0.851885
1359781952653,0.846844
1359782012653,0.850372
1359782072653,0.848314
1359782132653,0.839264
1359782192653,0.836452
1359782252653,0.823337
1359782312653,0.818042
1359782372653,0.814638
1359782432653,0.810810
1359782492653,0.809756
1359782552653,0.807278
1359782612653,0.809859
1359782672653,0.808070
1359782732653,0.801329
1359782792653,0.801302
1359782852653,0.802162
1359782912653,0.803987
1359782972653,0.804471
1359783032653,0.803715
1359783092653,0.804712
1359783152653,0.804058
1359783212653,0.808025
1359783272653,0.818099
1359783332653,0.812247
1359783392653,0.814730
1359783452653,0.810781
1359783512653,0.807818
1359783572653,0.808666
1359783632653,0.801312
1359783692653,0.811303
1359783752653,0.806172
1359783812653,0.805737
1359783872653,0.805637
1359783932653,0.805008
1359783992653,0.805368
1359784052653,0.803896
1359784112653,0.806660
1359784172653,0.804355
1359784232653,0.805829
1359784292653,0.811796
1359784352653,0.808755
1359784412653,0.799133
1359784472653,0.802142
1359784532653,0.804864
1359784592653,0.802791
1359784652653,0.796982
1359784712653,0.798185
1359784772653,0.796132
1359784832664,0.794059
1359784892664,0.802781
1359784952664,0.800246
1359785012664,0.801592
1359785072664,0.804937
1359785132664,0.804644
1359785192664,0.803227
1359785252664,0.801477
1359785312664,0.805918
1359785372664,0.807535
1359785432664,0.803433
1359785492664,0.793716
1359785552664,0.801142
1359785612664,0.806638
1359785672664,0.803153
1359785732664,0.799990
1359785792664,0.806302
1359785852664,0.796122
1359785912664,0.790339
1359785972664,0.807531
1359786032664,0.801968
1359786092664,0.794307
1359786152664,0.802774
1359786212664,0.798209
1359786272664,0.800306
1359786332664,0.803027
1359786392664,0.804729
1359786452664,0.797441
1359786512664,0.794352
1359786572664,0.803558
1359786632664,0.797098
1359786692664,0.795182
1359786752664,0.796660
1359786812664,0.799386
1359786872664,0.803061
1359786932664,0.796809
1359786992664,0.796903
1359787052664,0.798816
1359787112664,0.797411
1359787172664,0.802949
1359787232664,0.799983
1359787292664,0.806637
1359787352664,0.798678
1359787412664,0.796489
1359787472664,0.801031
1359787532664,0.803044
1359787592664,0.798314
1359787652664,0.801075
1359787712664,0.799987
1359787772664,0.796783
1359787832664,0.799209
1359787892664,0.797858
1359787952664,0.795768
1359788012664,0.801772
1359788072664,0.806149
1359788132664,0.798007
1359788192664,0.798027
1359788252664,0.799224
1359788312664,0.793050
1359788372664,0.804130
1359788432675,0.800223
1359788492675,0.798532
1359788552675,0.806783
1359788612675,0.799443
1359788672675,0.798228
1359788732675,0.800066
1359788792675,0.795756
1359788852675,0.795341
1359788912675,0.797663
1359788972675,0.797450
1359789032675,0.796646
1359789092675,0.793871
1359789152675,0.790569
1359789212675,0.798387
1359789272675,0.796757
1359789332675,0.792148
1359789392675,0.797548
1359789452675,0.794077
1359789512675,0.797196
1359789572675,0.798948
1359789632675,0.795583
1359789692675,0.797799
1359789752675,0.799119
1359789812675,0.794463
1359789872675,0.796064
1359789932675,0.792195
1359789992675,0.794605
1359790052675,0.801821
1359790112675,0.800756
1359790172675,0.791037
1359790232675,0.793515
1359790292675,0.797280
1359790352675,0.791147
1359790412675,0.797676
1359790472675,0.789570
1359790532675,0.796201
1359790592675,0.799165
1359790652675,0.790627
1359790712675,0.790805
1359790772675,0.798633
1359790832675,0.798349
1359790892675,0.792992
1359790952675,0.791059
1359791012675,0.798043
1359791072675,0.794272
1359791132675,0.798678
1359791192675,0.793967
1359791252675,0.798027
1359791312675,0.795120
1359791372675,0.794353
1359791432675,0.794557
1359791492675,0.795373
1359791552675,0.791504
1359791612675,0.798814
1359791672675,0.801031
1359791732675,0.794704
1359791792675,0.802524
1359791852675,0.791840
1359791912675,0.788423
1359791972675,0.794587
1359792032686,0.794221
1359792092686,0.793886
1359792152686,0.798945
1359792212686,0.790601
1359792272686,0.796820
1359792332686,0.792411
1359792392686,0.800511
1359792452686,0.797073
1359792512686,0.794668
1359792572686,0.796684
1359792632686,0.797371
1359792692686,0.790555
1359792752686,0.798243
1359792812686,0.793772
1359792872686,0.791466
1359792932686,0.792935
1359792992686,0.786061
1359793052686,0.792307
1359793112686,0.793434
1359793172686,0.804215
1359793232686,0.790567
1359793292686,0.797680
1359793352686,0.792900
1359793412686,0.797185
1359793472686,0.783267
1359793532686,0.794861
1359793592686,0.789957
1359793652686,0.795043
1359793712686,0.795513
1359793772686,0.791151
1359793832686,0.798776
1359793892686,0.796733
1359793952686,0.790675
1359794012686,0.791568
1359794072686,0.794100
1359794132686,0.796298
1359794192686,0.796824
1359794252686,0.790548
1359794312686,0.798050
1359794372686,0.796056
1359794432686,0.800913
1359794492686,0.793318
1359794552686,0.789694
1359794612686,0.790305
1359794672686,0.793861
1359794732686,0.797876
1359794792686,0.793288
1359794852686,0.798944
1359794912686,0.791467
1359794972686,0.801155
1359795032686,0.792480
1359795092686,0.797878
1359795152686,0.794668
1359795212686,0.791147
1359795272686,0.792944
1359795332686,0.791916
1359795392686,0.792892
1359795452686,0.796893
1359795512686,0.798011
1359795572686,0.798328
1359795632697,0.793225
1359795692697,0.792246
1359795752697,0.793015
1359795812697,0.793712
1359795872697,0.793756
1359795932697,0.793386
1359795992697,0.799696
1359796052697,0.794438
1359796112697,0.791330
1359796172697,0.796738
1359796232697,0.789739
1359796292697,0.801284
1359796352697,0.790577
1359796412697,0.789060
1359796472697,0.793473
1359796532697,0.797722
1359796592697,0.788765
1359796652697,0.790961
1359796712697,0.797955
1359796772697,0.793427
1359796832697,0.800054
1359796892697,0.794203
1359796952697,0.792802
1359797012697,0.795693
1359797072697,0.793803
1359797132697,0.788909
1359797192697,0.795173
1359797252697,0.799116
1359797312697,0.798297
1359797372697,0.793425
1359797432697,0.796116
1359797492697,0.795395
1359797552697,0.796547
1359797612697,0.801311
1359797672697,0.790264
1359797732697,0.793522
1359797792697,0.795951
1359797852697,0.798949
1359797912697,0.788097
1359797972697,0.793260
1359798032697,0.797105
1359798092697,0.793436
1359798152697,0.791661
1359798212697,0.797123
1359798272697,0.792841
1359798332697,0.797081
1359798392697,0.803468
1359798452697,0.791667
1359798512697,0.788620
1359798572697,0.796163
1359798632697,0.791517
1359798692697,0.792439
1359798752697,0.791539
1359798812697,0.787779
1359798872697,0.782633
1359798932697,0.793515
1359798992697,0.795355
1359799052697,0.791795
1359799112697,0.798665
1359799172697,0.801075
1359799232708,0.804688
1359799292708,0.798755
1359799352708,0.799258
1359799412708,0.801534
1359799472708,0.796526
1359799532708,0.790254
1359799592708,0.799672
1359799652708,0.796774
1359799712708,0.795626
1359799772708,0.794429
1359799832708,0.803732
1359799892708,0.791515
1359799952708,0.806193
1359800012708,0.800131
1359800072708,0.794102
1359800132708,0.798975
1359800192708,0.794447
1359800252708,0.804750
1359800312708,0.789653
1359800372708,0.799892
1359800432708,0.799592
1359800492708,0.793705
1359800552708,0.796908
1359800612708,0.793377
1359800672708,0.804703
1359800732708,0.799308
1359800792708,0.800538
1359800852708,0.793903
1359800912708,0.798158
1359800972708,0.804201
1359801032708,0.794497
1359801092708,0.802907
1359801152708,0.795231
1359801212708,0.802085
1359801272708,0.802854
1359801332708,0.799014
1359801392708,0.795548
1359801452708,0.795448
1359801512708,0.793729
1359801572708,0.799396
1359801632708,0.792100
1359801692708,0.794757
1359801752708,0.796382
1359801812708,0.797276
1359801872708,0.798468
1359801932708,0.801104
1359801992708,0.796104
1359802052708,0.803493
1359802112708,0.797534
1359802172708,0.802374
1359802232708,0.803826
1359802292708,0.804134
1359802352708,0.804229
1359802412708,0.800327
1359802472708,0.796909
1359802532708,0.798534
1359802592708,0.794641
1359802652708,0.795138
1359802712708,0.797138
1359802772708,0.798821
1359802832719,0.796292
1359802892719,0.794061
1359802952719,0.800922
1359803012719,0.803897
1359803072719,0.801632
1359803132719,0.808661
1359803192719,0.803720
1359803252719,0.801710
1359803312719,0.798729
1359803372719,0.796205
1359803432719,0.796683
1359803492719,0.797151
1359803552719,0.795783
1359803612719,0.800023
1359803672719,0.794344
1359803732719,0.801873
1359803792719,0.801528
1359803852719,0.802413
1359803912719,0.805556
1359803972719,0.802589
1359804032719,0.800006
1359804092719,0.801578
1359804152719,0.801234
1359804212719,0.810110
1359804272719,0.799063
1359804332719,0.790343
1359804392719,0.799247
1359804452719,0.803346
1359804512719,0.803302
1359804572719,0.798393
1359804632719,0.803114
1359804692719,0.808297
1359804752719,0.800504
1359804812719,0.798387
1359804872719,0.798516
1359804932719,0.791893
1359804992719,0.800524
1359805052719,0.798515
1359805112719,0.802388
1359805172719,0.800646
1359805232719,0.803969
1359805292719,0.799558
1359805352719,0.807019
1359805412719,0.800427
1359805472719,0.803923
1359805532719,0.812165
1359805592719,0.799617
1359805652719,0.802411
1359805712719,0.804726
1359805772719,0.802228
1359805832719,0.797496
1359805892719,0.801786
1359805952719,0.800500
1359806012719,0.803081
1359806072719,0.803015
1359806132719,0.810235
1359806192719,0.803516
1359806252719,0.803955
1359806312719,0.807253
1359806372719,0.802909
1359806432731,0.805158
1359806492731,0.813769
1359806552731,0.804744
1359806612731,0.801806
1359806672731,0.802038
1359806732731,0.801049
1359806792731,0.805489
1359806852731,0.803568
1359806912731,0.803996
1359806972731,0.803294
1359807032731,0.799786
1359807092731,0.800911
1359807152731,0.803052
1359807212731,0.804059
1359807272731,0.801057
1359807332731,0.795628
1359807392731,0.798799
1359807452731,0.802599
1359807512731,0.795234
1359807572731,0.801795
1359807632731,0.798521
1359807692731,0.801702
1359807752731,0.797023
1359807812731,0.798729
1359807872731,0.793887
1359807932731,0.794436
1359807992731,0.798189
1359808052731,0.797512
1359808112731,0.795657
1359808172731,0.794461
1359808232731,0.800777
1359808292731,0.796175
1359808352731,0.801939
1359808412731,0.798890
1359808472731,0.787651
1359808532731,0.800245
1359808592731,0.800799
1359808652731,0.796637
1359808712731,0.791380
1359808772731,0.789820
1359808832731,0.795367
1359808892731,0.796557
1359808952731,0.799832
1359809012731,0.794276
1359809072731,0.799381
1359809132731,0.799483
1359809192731,0.798309
1359809252731,0.796772
1359809312731,0.800052
1359809372731,0.795161
1359809432731,0.793558
1359809492731,0.796547
1359809552731,0.801322
1359809612731,0.798396
1359809672731,0.800337
1359809732731,0.799854
1359809792731,0.793548
1359809852731,0.801674
1359809912731,0.798165
1359809972731,0.793792
1359810032742,0.795577
1359810092742,0.798707
1359810152742,0.796888
1359810212742,0.793053
1359810272742,0.798275
1359810332742,0.793168
1359810392742,0.793864
1359810452742,0.803953
1359810512742,0.790975
1359810572742,0.800252
1359810632742,0.798383
1359810692742,0.794539
1359810752742,0.800718
1359810812742,0.797623
1359810872742,0.792431
1359810932742,0.795644
1359810992742,0.798664
1359811052742,0.793980
1359811112742,0.797841
1359811172742,0.800088
1359811232742,0.793966
1359811292742,0.793972
1359811352742,0.788894
1359811412742,0.799341
1359811472742,0.794699
1359811532742,0.789218
1359811592742,0.801208
1359811652742,0.795863
1359811712742,0.793519
1359811772742,0.793322
1359811832742,0.794250
1359811892742,0.796642
1359811952742,0.796804
1359812012742,0.799239
1359812072742,0.798230
1359812132742,0.794348
1359812192742,0.794999
1359812252742,0.801130
1359812312742,0.790137
1359812372742,0.796385
1359812432742,0.798142
1359812492742,0.802101
1359812552742,0.798961
1359812612742,0.797829
1359812672742,0.799598
1359812732742,0.796891
1359812792742,0.790712
1359812852742,0.795297
1359812912742,0.799021
1359812972742,0.794294
1359813032742,0.802031
1359813092742,0.800694
1359813152742,0.799241
1359813212742,0.797232
1359813272742,0.795397
1359813332742,0.788998
1359813392742,0.802675
1359813452742,0.793584
1359813512742,0.793514
1359813572742,0.796478
1359813632753,0.797461
1359813692753,0.790590
1359813752753,0.800277
1359813812753,0.797465
1359813872753,0.795226
1359813932753,0.798924
1359813992753,0.797628
1359814052753,0.798210
1359814112753,0.800053
1359814172753,0.802743
1359814232753,0.794254
1359814292753,0.797256
1359814352753,0.797543
1359814412753,0.794147
1359814472753,0.797383
1359814532753,0.798783
1359814592753,0.797130
1359814652753,0.799193
1359814712753,0.794424
1359814772753,0.786915
1359814832753,0.801756
1359814892753,0.799304
1359814952753,0.794952
1359815012753,0.797175
1359815072753,0.798109
1359815132753,0.805340
1359815192753,0.794603
1359815252753,0.804938
1359815312753,0.799865
1359815372753,0.805890
1359815432753,0.801852
1359815492753,0.794126
1359815552753,0.798547
1359815612753,0.805259
1359815672753,0.800378
1359815732753,0.808818
1359815792753,0.801048
1359815852753,0.792455
1359815912753,0.805587
1359815972753,0.804418
1359816032753,0.799461
1359816092753,0.805165
1359816152753,0.805834
1359816212753,0.804761
1359816272753,0.799670
1359816332753,0.796083
1359816392753,0.799013
1359816452753,0.797731
1359816512753,0.805222
1359816572753,0.799160
1359816632753,0.801844
1359816692753,0.800651
1359816752753,0.808087
1359816812753,0.801023
1359816872753,0.801905
1359816932753,0.799627
1359816992753,0.802774
1359817052753,0.801084
1359817112753,0.794420
1359817172753,0.802453
1359817232764,0.799156
1359817292764,0.797660
1359817352764,0.799368
1359817412764,0.806417
1359817472764,0.804316
1359817532764,0.808371
1359817592764,0.803537
1359817652764,0.800160
1359817712764,0.803504
1359817772764,0.801600
1359817832764,0.808025
1359817892764,0.801296
1359817952764,0.801338
1359818012764,0.799458
1359818072764,0.805846
1359818132764,0.794829
1359818192764,0.804277
1359818252764,0.806500
1359818312764,0.800406
1359818372764,0.807759
1359818432764,0.800000
1359818492764,0.804657
1359818552764,0.795839
1359818612764,0.795715
1359818672764,0.800179
1359818732764,0.805207
1359818792764,0.797735
1359818852764,0.803656
1359818912764,0.807106
1359818972764,0.803213
1359819032764,0.804686
1359819092764,0.804008
1359819152764,0.801654
1359819212764,0.813571
1359819272764,0.808224
1359819332764,0.804761
1359819392764,0.804880
1359819452764,0.804120
1359819512764,0.796739
1359819572764,0.802609
1359819632764,0.805623
1359819692764,0.800970
1359819752764,0.805747
1359819812764,0.801725
1359819872764,0.809048
1359819932764,0.805372
1359819992764,0.808214
1359820052764,0.807468
1359820112764,0.808225
1359820172764,0.804851
1359820232764,0.802254
1359820292764,0.800259
1359820352764,0.807780
1359820412764,0.800859
1359820472764,0.803455
1359820532764,0.807284
1359820592764,0.801569
1359820652764,0.808548
1359820712764,0.805841
1359820772764,0.803521
1359820832775,0.806309
1359820892775,0.809456
1359820952775,0.807323
1359821012775,0.796282
1359821072775,0.802108
1359821132775,0.806524
1359821192775,0.801808
1359821252775,0.803729
1359821312775,0.811740
1359821372775,0.807387
1359821432775,0.802612
1359821492775,0.810014
1359821552775,0.808369
1359821612775,0.798800
1359821672775,0.805543
1359821732775,0.803635
1359821792775,0.804305
1359821852775,0.808818
1359821912775,0.809077
1359821972775,0.805082
1359822032775,0.808649
1359822092775,0.811055
1359822152775,0.809249
1359822212775,0.804984
1359822272775,0.809263
1359822332775,0.815344
1359822392775,0.813076
1359822452775,0.812698
1359822512775,0.816942
1359822572775,0.817975
1359822632775,0.822726
1359822692775,0.821856
1359822752775,0.818339
1359822812775,0.821163
1359822872775,0.824720
1359822932775,0.818636
1359822992775,0.829895
1359823052775,0.820361
1359823112775,0.816739
1359823172775,0.823392
1359823232775,0.822491
1359823292775,0.815942
1359823352775,0.810503
1359823412775,0.828275
1359823472775,0.823054
1359823532775,0.823669
1359823592775,0.830594
1359823652775,0.819358
1359823712775,0.816411
1359823772775,0.823290
1359823832775,0.821082
1359823892775,0.831903
1359823952775,0.822737
1359824012775,0.823890
1359824072775,0.823565
1359824132775,0.815475
1359824192775,0.826478
1359824252775,0.823839
1359824312775,0.822673
1359824372775,0.824255
1359824432786,0.823598
1359824492786,0.818054
1359824552786,0.811489
1359824612786,0.821357
1359824672786,0.819591
1359824732786,0.817030
1359824792786,0.812253
1359824852786,0.812606
1359824912786,0.814302
1359824972786,0.811757
1359825032786,0.821862
1359825092786,0.822044
1359825152786,0.819314
1359825212786,0.824675
1359825272786,0.818227
1359825332786,0.817041
1359825392786,0.825101
1359825452786,0.820940
1359825512786,0.815273
1359825572786,0.821807
1359825632786,0.818427
1359825692786,0.826824
1359825752786,0.820515